Погода в Рубцовске

Хотите узнать прогноз погоды в Рубцовске? Тогда Вам сюда: Погода в Рубцовске

Поиск расширенной информации на нашем сайте:

Полезная информация:

Новости сайта



02.01.2020
Опубликован Долгосрочный прогноз погоды по городам России и ближнего зарубежья на январь 2020 года.
Карты: Прогноз на январь и февраль 2020 года, Сравнение прогнозируемой аномалии приземной температуры воздуха на январь 2020 года по разным моделям.




Погода в Рубцовске - сегодня

Время (UTC), дата Ветер
(°,м/с) 
Видим.   Явления Облачность Т
(°С)
Тd
(°С)
f(%) Тe
(°С)
Pmin
(гПа)
dP
(гПа)
Po
(мм)
O2
(г/м3)
Тmin Tmax R s Состояние
почвы
00 16.01.22 120 (ЮВ) 20000 м    10/10 600 м 
[Sc]
-7.6 -10.2 82 -7  1016.8  -1  742  308  -12    0.0  11  равномерный
сухой снег
100% 
03 16.01.22 040 (СВ) 20000 м    10/10 1000 м 
[Sc]
-8.8 -10.8 85 -10  1017.5  0.4  742  310           
06 16.01.22 070 (В) 20000 м    10/10 1000 м 
[Sc]
-3.7 -6.6 80 -3  1015.9  -0.9  741  303           
09 16.01.22 080 (В) 20000 м    10/10 1000 м 
[Sc]
-0.4 -2.2 88 1013.2  -2.4  739  299           
12 16.01.22 100 (В) 20000 м  слаб. ливневой дождь [диам. гололёда 1 мм]  10/10 300 м кучево-дожд. 
[Cb cap]
+0.1 -0.4 96 +1  1013.9  0.8  740  298    +0.4  0.3     
15 16.01.22 180 (Ю) 8-12{12}  20000 м  {ливн. осадки, дождь} [диам. гололёда 2 мм]  10/10 1000 м 
[Sc]
+3.3 -2.7 65 1011.5  -2  738  294           
18 16.01.22 200 (Ю) 8-12{14}  20000 м  {ливн. осадки, дождь}  10/10 1000 м 
[Sc]
+3.4 -2.6 65 1013.6  740  295           
21 16.01.22 200 (Ю) 7-12{12}  20000 м  {ливн. осадки}  10/10 1000 м 
[Sc]
+3 -3.1 64 1015.3  1.7  741  296           
00 17.01.22 190 (Ю) 4{12}  20000 м    10/10 1000 м 
[Sc]
+1.6 -0.6 85 -1  1016.5  742  297  +0.1    11  равномерный
сухой снег
100% 
03 17.01.22 190 (Ю) 20000 м    10/10 600 м 
[Sc]
+1.2 +0.7 96 +1  1018  1.3  743  298           
06 17.01.22 180 (Ю) 20000 м    10/10 600 м 
[Sc]
+1.8 +0.2 89 +1  1018.3  0.3  743  297           
09 17.01.22 300 (СЗ) 10 км  слаб. ливневой снег  10/10 300 м кучево-дожд. 
[Cb cap]
-0.2 -0.8 96 -3  1019.5  744  300           
12 17.01.22 280 (З) 20000 м  {ливн. осадки}  10/10 600 м 
[Sc]
-1.6 -5 78 -4  1021.6  745  303    +1.8  0.0     
15 17.01.22 280 (З) 20000 м    10/3 600 м средняя 
[Sc|Ac und]
-3.7 -6.6 80 -7  1025.3  3.4  748  306           
18 17.01.22 240 (ЮЗ) 20000 м    10/0 верхняя 
[Cs]
-8.8 -10.3 89 -9  1027.3  1.4  749  313           
21 17.01.22 200 (Ю) 20000 м    10/0 верхняя 
[Ci fib]
-10.2 -11.5 90 -12  1028.9  1.4  750  315           
00 18.01.22 210 (ЮЗ) 20000 м    10/0 верхняя 
[Ci fib]
-12.8 -13.4 95 -15  1030.9  1.6  751  319  -13      10  равномерный
сухой снег
100% 
03 18.01.22 220 (ЮЗ) 20000 м    10/0 верхняя 
[Ci sp]
-12 -12.6 95 -14  1032.5  1.7  753  318           
06 18.01.22 210 (ЮЗ) 20000 м    10/0 верхняя 
[Ci sp]
-11 -12.3 90 -13  1032.5  0.1  753  317           
09 18.01.22 210 (ЮЗ) 20000 м    10/0 верхняя 
[Ci sp]
-7.4 -9.5 85 -7  1030.7  -1.4  752  312           
12 18.01.22 060 (СВ) 20000 м    10/0 верхняя 
[Ci sp]
-7.6 -9.8 84 -7  1030.5  -0.2  751  312    -7.4       
15 18.01.22 060 (СВ) 20000 м    10/0 верхняя 
[Ci fib]
-10.2 -10.8 95 -10  1030.3  -0.5  751  315           
18 18.01.22 030 (СВ) 20000 м    10/0 верхняя 
[Ci fib]
-12 -12.6 95 -12  1029.8  -0.7  751  317           
21 18.01.22 030 (СВ) 20000 м    10/0 верхняя 
[Ci fib]
-13.4 -14 95 -16  1029.8  -0.1  750  319           
00 19.01.22 030 (СВ) 4000 м  дымка  10/0 верхняя 
[Ci fib]
-14 -14.6 95 -14  1028.9  -0.9  750  320  -14      10  равномерный
сухой снег
100% 
Время (UTC), дата Ветер
(°,м/с) 
Видим.   Явления Облачность Т
(°С)
Тd
(°С)
f(%) Тe
(°С)
Pmin
(гПа)
dP
(гПа)
Po
(мм)
O2
(г/м3)
Тmin Tmax R s Состояние
почвы

Для получения пояснительной информации подведите курсор к названию столбца.

ПОГОДА в Рубцовске - архив

Всё, что Вы хотите узнать о погоде в Рубцовске - удобно и подробно!

Выберите нужную дату (начиная с 1 января 2019* года) и нажмите кнопку "Найти".
Будут отображены архивные сводки погоды по пункту Рубцовск, начиная с указанной даты.


Отображать данные в формате CSV (для использования в таблицах Excel)


Внимание! Наш архив погоды предназначен исключительно для личного некоммерческого использования в познавательных целях. Если Вам необходимы официальные справки о состоянии погоды (для производственных, юридических, коммерческих и т.п. целей), обращайтесь в органы Росгидромета.

*Примечание: данная дата относится к архиву по метеостанциям СССР (Россия, СНГ, Балтия).
Архив по метеостанциям Зарубежной Европы и Азии (кроме Китая) хранится 10 дней, по другим регионам земного шара (Китай, Африка, Америка, Австралия, Океания) - 1 день.

Рубцовск - район местоположения метеостанции


Название, широта, долгота, высота метеостанции:
Рубцовск 51.5°ш. 81.2°д. 219 м над ур. моря [Российская Федерация]

Дополнительная информация

В oтличие oт бoльшинства пoгoдных сайтoв мы публикуем пoдрoбную метеoинфoрмацию в детальнoм прoфессиoнальнoм фoрмате.

Характеристики температуры и влажнoсти вoздуха измеряются на высoте 2 м в тени вдали oт зданий и деревьев.
Скoрoсть ветра измеряется на высoте 10 м (на урoвне рoста челoвека скoрoсть ветра ниже в 1.5-2 раза). Если метеoстанция нахoдится в гoрoде или в лесу, тo скoрoсть ветра занижена на 2-4 м/с пo сравнению с oткрытым местoм. Скoрoсть ветра над акватoриями крупных рек и oзёр, а также на вершинах хoлмoв на 2-5 м/с выше, чем в oбычных услoвиях.
Атмoсфернoе давление в разных тoчках местнoсти мoжет значительнo oтличаться oт давления на метеoстанции, в зависимoсти oт услoвий рельефа (при пoдъёме на 10 м давление пoнижается примернo на 1 мм рт.ст.).